Regional Weather Roundup
Issued by NWS Tiyan, Guam

Home | Current Version | Previous Version | Text Only | Print | Product List | Glossary On
Versions: 1 2 3 4 5 6 7 8 9 10 11 12 13 14 15 16 17 18 19 20 21 22 23 24 25 26 27
000
ASGM40 PGUM 252112
RWRGUM
WEATHER ROUNDUP FOR THE MARIANAS
NATIONAL WEATHER SERVICE TIYAN GU
700 AM CHST MON JUN 26 2017

GUZ001>004-252200-
MARIANA ISLANDS-

CITY           SKY/WX    TMP DP  RH WIND       PRES   REMARKS
GUAM AIRPORT   PTSUNNY   82  77  83 SE12G23   29.86R HX  91
ANDERSEN AFB   PTSUNNY   81  77  89 SE13      29.86R
ROTA AIRPORT   PTSUNNY   79  77  94 SE15      29.86R
TINIAN AP      PTSUNNY   82  77  83 E12       29.85R HX  91
SAIPAN AP      MOSUNNY   84  77  79 SE13      29.86R HX  94

$$





USA.gov is the U.S. government's official web portal to all federal, state and local government web resources and services.